{"data":{"norad_id":41770,"epoch":"2026-05-25T04:28:48.853056Z","epoch_age_seconds":73118,"freshness":"FRESH","line1":"1 41770U 16058A   26145.18667654  .00000105  00000+0  32443-4 0  9995","line2":"2 41770  98.2020 219.1293 0001409  83.8884 276.2476 14.58539895515745","mean_motion":14.58539895,"eccentricity":0.0001409,"inclination_deg":98.202,"raan_deg":219.1293,"arg_perigee_deg":83.8884,"mean_anomaly_deg":276.2476,"bstar":3.2443e-5,"rev_number":51574,"period_min":98.728872959625,"perigee_km":696.89545500263,"apogee_km":698.88948010659,"semimajor_km":7076.0294675546,"source":"CELESTRAK","updated_at":"2026-05-25T13:37:55.624076Z"}}